IRIDIUM 33 DEB

Satellite information

Favourite Embed

Satellite Type and Status

DEBRISIN ORBIT

Key statistics

Satellite IRIDIUM 33 DEB at a glance.

Uptime

10158

Days in orbit

Revolutions

≈ 14.4

Per day

Orbit

LEO

Low Earth Orbit

Inclination

86.4

Latest

Satellite identification and parameters

Extended collection of information and parameters for IRIDIUM 33 DEB.

Object identification

Identified? True

Debris? True

Object name: IRIDIUM 33 DEB

International designator: 1997-051HS

Object number (NORAD): 34525

Object ID (CCSDS): 34525

Country: UNITED STATES OF AMERICA (US)

Current information (Y/N): Y

RCS size: SMALL

Orbital parameters

Period: 99.836 minutes

Inclination: 86.3739 deg

SMA: 7128.829 km

Apoapsis: 752.054 km

Periapsis: 749.333 km

RAAN: 114.7635 deg

Eccentricy: 0.0001908

Argument of periapsis: 253.9673 deg

Mean anomaly: 226.2382 deg

Mean motion: 14.42366084 rev/day

Mean motion (dot): 0.00000903 rev/day2

B* drag term: 0.00026755 1/REarth

Two-line elements (TLE)

Creation date: July 6, 2025, 6:05 p.m.

Reference frame: TEME

Reference center: EARTH

Epoch: July 6, 2025, 1:58 p.m. UTC

TLE line 0: 0 IRIDIUM 33 DEB

TLE line 1: 1 34525U 97051HS 25187.58228306 .00000903 00000-0 26755-3 0 9998

TLE line 2: 2 34525 86.3739 114.7635 0001908 253.9673 226.2382 14.42366084857932

Live tracking on map

Real-time ground track for satellite IRIDIUM 33 DEB.

In-orbit conjunctions

A list of the most updated potential collisions computed for object IRIDIUM 33 DEB.

Target Orbit TCA Probability of collision Miss distance Type
CZ-6A DEB LEO 2025-04-22 20:07:38 0.0001519597 99.0 (m) DEBRIS
CZ-6A DEB SSO 2024-12-17 13:09:28 0.0001013524 128.0 (m) DEBRIS
YAOGAN 30 DEB SSO 2024-09-28 05:01:58 0.0007736973 70.0 (m) DEBRIS
NOAA 16 DEB SSO 2024-09-02 05:49:49 0.0001128163 355.0 (m) DEBRIS

Associated space launch

Iridium provides global mobile telecommunications services using a constellation of 66 low earth orbit satellites in a 86.4° inclined orbit. Although 77 satellites were originally envisioned for the system and spawned the name based on the 77th element in the periodic table, the system has been scaled back. Motorola's Satellite Communications Group designed and manufactured the Iridium satellites with Lockheed Martin providing the LM-700A spacecraft buses.

IRIDIUM 33 DEB was lifted into orbit during the mission ‘Proton-K/17S40 | Iridium 27 to 33’, on board a Proton-K/17S40 space rocket.

The launch took place on Sept. 14, 1997, 1:36 a.m. from 81/23 (81L).

For more information about the launch, click the button.

Launch to space Proton-K/17S40 | Iridium 27 to 33
Proton-K/17S40 | Iridium 27 to 33

Agency: N/A

Status: Launch Successful

Launch date: Sept. 14, 1997, 1:36 a.m. UTC

Rocket: Proton-K/17S40

Launch pad: 81/23 (81L)

Location: Baikonur Cosmodrome, Republic of Kazakhstan

...

Latest news about this satellite

There are no fresh news available about this satellite. Check back as we update our databases every day.


Newsletter sign-up

Weekly statistics, charts and insights to help you stay on top of the space industry.